Location: ASU Dark Sky Observatory
(36.2504°N, 81.4125°W)
Time: 04:59:34
(UTC-05:00)

ETS-7 - Visible Passes

Search period start: 22 December 2014 00:00
Search period end: 01 January 2015 00:00
Orbit: 391 x 397 km, 35.0° (Epoch: 20 December)

Date Brightness Start Highest point End Pass type
(mag) Time Alt. Az. Time Alt. Az. Time Alt. Az.
22 Dec 3.7 05:35:27 31° SSE 05:35:27 31° SSE 05:38:05 10° E visible
23 Dec 2.5 06:13:34 29° WSW 06:14:58 60° S 06:18:08 10° E visible
24 Dec 4.6 05:19:07 22° ESE 05:19:07 22° ESE 05:20:30 10° E visible
24 Dec 2.3 06:51:34 10° W 06:54:45 70° S 06:57:57 10° E visible
25 Dec 2.1 05:56:51 67° SSW 05:57:03 70° S 06:00:15 10° E visible
26 Dec 5.5 05:02:06 13° E 05:02:06 13° E 05:02:27 10° E visible
26 Dec 2.4 06:34:27 18° W 06:36:38 59° S 06:39:47 10° ESE visible
27 Dec 3.2 05:39:34 44° ESE 05:39:34 44° ESE 05:41:56 10° ESE visible
28 Dec 2.9 06:16:56 29° WSW 06:18:04 42° SSW 06:21:07 10° ESE visible
29 Dec 4.6 05:21:52 22° ESE 05:21:52 22° ESE 05:23:10 10° ESE visible
29 Dec 4.2 06:54:48 10° WSW 06:57:08 19° SSW 06:59:27 10° SSE visible
30 Dec 3.6 05:59:04 26° SSW 05:59:04 26° SSW 06:01:49 10° SE visible
31 Dec 4.7 06:37:23 10° SW 06:37:48 10° SSW 06:38:13 10° SSW visible
